Wetbulb
61.40 61.37 61.04 60.54 59.90 59.32 59.01 58.51 57.91 56.42 55.46 54.83 54.71 54.52 53.77 54.23 53.06 57.22 56.29 58.87 58.83 57.10 54.39 52.11 54.85 54.66 55.12 51.84 53.26 53.63 45.90 43.76 46.21 47.84 49.89 54.02 52.34 53.71 54.91 52.95 54.16 55.05 54.89 56.92 59.17
58.55 60.00 61.64 61.23 60.14 59.24 58.63 58.14 57.51 56.55 55.33 54.71 54.60 53.68 53.47 54.00 50.77 54.49 58.40 58.85 58.95 57.24 50.31 50.78 51.97 53.07 50.60 50.83 51.86 49.39 45.64 46.34 50.92 52.00 51.12 52.54 51.79 52.46 51.57 51.90 52.31 53.42 56.37 57.75 58.18
57.26 57.59 57.92 58.99 60.00 59.75 58.79 57.81 57.19 56.00 55.34 54.62 54.01 53.08 53.42 52.15 52.77 52.61 57.08 58.09 57.54 56.91 52.00 54.00 53.96 52.48 49.93 51.26 50.66 49.66 46.04 49.28 50.61 52.38 52.47 51.34 50.82 52.62 50.50 49.28 52.05 52.08 54.14 56.34 57.09
56.54 57.01 57.30 57.90 57.91 59.02 58.89 57.53 57.15 56.08 55.19 54.41 52.84 52.29 53.15 51.58 47.29 55.00 58.32 57.84 58.41 55.04 52.69 52.98 52.30 49.52 48.34 47.66 51.46 47.08 49.77 50.41 50.56 51.57 50.35 49.07 51.09 49.57 50.69 51.54 54.02 54.09 54.42 54.19 53.68
55.82 56.04 56.45 56.63 57.53 57.14 58.13 57.56 56.90 56.19 54.93 53.33 51.87 51.79 51.05 49.68 51.93 61.21 60.34 57.70 55.41 53.04 52.73 52.41 50.38 49.92 46.98 49.37 50.40 48.77 49.83 50.85 51.41 51.33 50.96 50.66 48.19 48.49 48.86 51.72 53.00 53.20 53.21 53.18 53.63
55.42 55.22 55.55 56.32 56.80 56.61 56.54 57.48 56.26 55.65 54.52 52.50 51.21 50.59 48.54 44.61 58.84 61.13 59.09 57.83 54.55 53.97 53.20 54.05 52.22 52.99 49.92 49.20 48.07 49.44 48.96 48.93 49.62 49.21 49.63 48.27 48.60 48.83 49.76 51.76 51.38 51.81 52.13 53.12 53.30
55.28 54.92 55.08 55.54 55.83 56.33 56.18 56.93 55.59 54.88 53.45 51.95 50.76 50.28 47.04 48.13 58.16 59.65 59.56 57.03 56.13 56.09 53.52 55.40 55.44 52.18 51.72 48.52 51.71 49.79 45.82 47.54 48.31 49.13 48.50 49.69 46.25 46.92 51.27 52.01 51.20 51.29 51.92 52.42 53.17
54.82 54.65 54.72 54.79 55.03 55.64 55.88 56.00 55.13 54.27 52.58 50.64 49.19 48.51 44.82 56.62 58.87 57.10 58.00 56.95 58.71 56.04 54.79 55.68 55.57 52.32 50.14 50.87 48.17 45.29 45.73 41.50 47.86 49.36 50.25 48.81 42.40 48.49 51.95 51.36 50.36 50.98 51.90 52.66 53.09
54.65 54.70 54.68 54.50 54.56 55.07 55.35 55.71 54.28 52.82 50.72 49.79 48.11 48.33 45.62 57.52 54.14 56.75 57.27 54.21 56.49 56.03 54.42 54.53 53.37 49.12 48.47 44.03 42.24 44.19 39.14 41.42 44.68 50.42 49.55 48.76 45.60 49.62 51.25 51.15 50.16 50.60 51.46 51.74 52.33
54.30 54.82 54.94 54.86 54.76 54.78 54.67 53.23 51.79 50.10 48.77 50.16 50.48 44.95 49.25 48.54 53.93 55.54 55.79 55.66 53.03 53.15 51.29 49.58 48.03 44.51 44.34 41.61 35.37 38.60 40.14 42.94 43.04 47.89 49.45 47.33 47.17 49.28 50.77 50.59 49.56 49.91 50.69 51.24 51.66
54.44 54.76 54.90 55.29 54.68 53.45 50.40 48.62 45.62 43.80 44.60 47.09 47.77 47.15 50.40 54.27 55.28 52.96 54.26 53.04 51.75 49.60 43.81 47.31 42.08 39.05 41.58 43.83 44.18 43.32 41.61 40.68 44.21 47.54 46.31 45.56 44.82 47.49 49.74 49.90 49.15 48.91 49.55 50.55 51.97
53.97 54.19 54.84 55.41 54.75 51.85 52.23 48.41 49.98 52.05 45.51 48.12 50.03 50.26 52.30 53.14 48.24 50.82 54.70 48.18 46.91 42.38 45.26 42.70 39.07 43.43 44.81 44.12 43.08 42.31 40.25 39.55 43.46 45.85 44.98 43.68 41.72 44.21 48.28 48.67 49.47 48.85 49.01 50.29 51.88
53.35 54.11 55.15 55.17 53.24 51.14 50.05 50.61 53.07 54.30 45.05 46.67 50.10 49.14 50.26 52.18 47.82 48.45 51.94 49.22 45.27 42.46 42.76 39.97 42.44 45.60 43.76 41.98 40.06 40.05 39.13 38.70 38.40 42.30 43.34 41.47 38.71 41.99 47.10 48.58 49.10 50.06 50.13 51.28 52.82
53.38 54.26 54.69 53.71 49.07 50.19 49.10 50.41 53.54 54.53 38.65 41.10 45.52 49.06 51.06 51.43 46.63 52.64 53.20 49.68 46.26 42.34 43.30 42.00 45.54 43.25 42.02 40.49 40.95 35.76 42.37 40.95 38.84 36.36 31.52 40.68 30.48 38.84 43.65 45.27 46.72 48.46 50.09 51.95 52.37
53.36 55.21 53.34 52.51 50.37 48.27 47.18 49.28 52.56 49.58 26.32 41.74 45.02 52.35 50.48 47.21 47.72 48.30 52.99 49.39 43.49 43.48 43.22 40.22 41.73 40.94 39.04 40.37 42.42 38.27 40.60 38.94 38.00 35.25 34.32 34.76 31.19 36.66 42.93 41.84 44.90 48.05 50.56 51.49 51.26
54.71 54.30 52.18 49.48 51.10 49.17 48.89 50.03 49.43 35.38 25.59 39.37 45.19 44.25 44.22 46.12 46.57 48.08 47.28 50.13 48.93 44.11 44.71 41.96 45.69 42.93 41.78 43.19 43.04 41.54 37.52 37.64 37.21 34.49 27.32 33.26 31.93 32.80 38.76 42.81 45.09 48.43 49.69 50.11 50.34
54.00 53.47 52.05 50.83 45.12 48.64 48.99 46.85 33.26 28.95 40.84 38.20 40.73 43.04 42.02 41.97 43.24 44.55 43.16 41.78 39.64 34.79 35.50 40.10 39.84 43.57 43.75 39.05 41.42 38.60 33.43 27.16 25.65 26.48 25.82 36.48 32.57 34.73 42.21 45.02 46.85 47.13 48.45 49.21 49.50
48.38 48.05 46.90 47.88 49.42 48.42 47.69 38.60 29.45 35.85 36.71 43.50 42.74 42.52 39.42 41.86 42.04 42.86 41.18 38.58 42.48 39.98 36.55 32.99 31.83 39.86 43.18 39.65 37.23 36.02 33.73 27.95 21.70 24.12 27.67 35.83 29.79 34.55 44.95 47.81 47.91 47.99 47.76 47.78 47.11
46.70 45.73 44.64 46.31 49.55 48.72 41.36 31.80 32.73 37.91 42.15 41.12 41.50 37.98 38.70 41.43 41.44 41.37 40.51 39.42 41.62 42.04 34.14 34.18 34.41 43.42 43.31 42.97 41.37 35.93 31.50 37.14 30.26 31.01 28.41 31.91 35.61 40.62 44.96 44.95 45.37 45.59 45.40 44.68 44.94
43.67 41.85 41.78 47.37 48.61 44.48 35.88 34.00 37.93 43.29 43.58 42.35 35.52 37.12 34.76 38.15 38.23 38.76 39.03 42.50 40.83 43.97 44.32 38.07 32.02 39.66 41.98 42.77 41.85 39.40 41.14 31.54 31.36 23.66 23.01 30.55 32.48 33.87 39.57 41.02 42.96 42.26 42.12 42.47 43.14
44.03 37.68 42.42 46.80 46.45 37.00 31.43 35.45 39.62 44.46 43.62 39.26 37.38 36.45 37.20 36.96 38.52 36.97 36.92 41.00 43.10 43.36 43.58 40.18 36.51 35.15 38.93 36.82 35.90 37.01 35.24 35.49 35.03 32.47 26.25 25.26 30.39 39.13 37.99 39.57 40.20 41.29 41.67 41.93 42.09
41.98 33.88 43.18 45.62 32.95 34.03 33.36 39.06 41.94 41.79 43.17 40.17 39.94 39.37 38.22 38.32 36.99 36.98 36.27 38.59 44.28 44.11 38.38 41.30 36.92 31.44 34.31 40.50 41.01 39.94 36.68 35.81 31.05 28.92 31.66 30.41 30.07 41.19 39.40 40.85 41.74 41.37 41.64 42.11 41.84
38.31 35.77 42.82 42.61 29.81 31.45 36.55 38.17 40.49 39.40 39.77 38.88 37.65 39.77 41.04 37.37 33.50 36.93 38.53 40.31 41.18 39.81 37.57 40.05 34.45 28.05 29.91 35.38 38.42 35.45 37.44 37.86 36.07 34.83 28.53 25.45 28.16 40.88 41.43 41.24 41.92 41.01 41.40 40.98 40.35
37.94 31.69 34.03 35.62 36.08 35.16 33.95 35.36 36.02 40.66 39.57 40.32 39.07 40.58 38.20 36.29 38.49 35.31 36.75 38.79 40.82 40.90 38.54 39.26 35.47 31.93 27.16 29.43 35.34 32.76 35.04 36.37 34.75 28.47 29.20 29.78 31.56 36.73 37.55 38.48 40.02 40.21 40.51 39.03 37.71
36.66 35.25 37.28 28.47 30.49 34.87 37.70 36.87 35.15 34.45 39.52 40.54 37.65 38.02 36.43 32.71 34.49 34.48 37.38 37.27 38.98 36.94 38.30 37.83 30.55 33.89 34.78 33.90 33.80 34.01 33.45 34.15 31.99 32.53 28.55 30.92 31.24 34.23 37.18 38.22 38.40 38.83 38.35 36.75 35.22
35.52 36.62 39.40 38.01 36.37 34.02 36.08 35.72 35.26 36.12 36.95 35.54 36.00 38.02 37.85 34.57 35.61 33.10 36.35 36.04 34.12 36.30 35.90 37.37 29.87 32.80 30.03 33.84 33.08 30.52 32.51 32.85 33.14 33.22 32.45 32.39 31.43 37.14 36.88 37.32 35.65 35.57 34.90 33.35 32.90
41.94 44.16 40.45 37.61 35.72 34.11 34.91 35.91 36.53 38.68 39.66 39.95 39.09 37.73 36.32 37.61 39.94 40.51 41.13 40.40 38.42 34.35 33.83 33.48 32.03 28.82 25.29 31.75 29.64 25.25 30.46 31.86 32.93 34.39 33.93 29.02 32.71 35.74 32.12 31.41 31.09 32.35 32.01 30.87 30.41
MSLP
1017.14 1017.12 1017.06 1017.22 1017.21 1017.22 1017.28 1017.49 1017.52 1017.75 1017.61 1017.56 1017.40 1017.28 1016.87 1016.16 1015.13 1013.27 1012.59 1011.73 1011.10 1011.47 1011.85 1010.98 1009.91 1009.54 1009.19 1008.59 1007.92 1007.28 1006.34 1005.14 1003.66 1002.27 1000.92 1000.09 999.68 1000.20 1000.71 1000.85 1001.51 1001.65 1002.11 1002.26 1002.24
1017.02 1016.92 1016.79 1016.71 1016.99 1017.04 1016.91 1017.13 1017.38 1017.52 1017.53 1017.52 1017.46 1017.33 1016.90 1016.31 1015.21 1012.65 1011.68 1011.57 1011.54 1011.50 1011.26 1010.42 1009.41 1008.84 1008.45 1008.04 1007.50 1006.84 1005.75 1004.21 1003.63 1002.35 1001.29 1000.60 1000.60 1000.30 1000.88 1001.13 1001.42 1001.73 1001.84 1002.02 1002.56
1016.76 1016.78 1016.72 1016.61 1016.54 1016.83 1016.52 1016.63 1016.92 1017.27 1017.43 1017.41 1017.44 1017.29 1017.11 1016.49 1014.24 1011.29 1011.39 1011.42 1011.47 1011.58 1011.09 1010.15 1009.42 1008.83 1008.09 1007.70 1007.06 1006.22 1005.11 1004.90 1003.83 1002.97 1002.41 1001.82 1001.43 1001.43 1001.11 1000.71 1000.98 1001.24 1001.48 1001.67 1002.06
1016.58 1016.50 1016.45 1016.33 1016.29 1016.53 1016.15 1016.27 1016.52 1016.77 1017.19 1017.44 1017.55 1017.24 1017.03 1016.38 1013.14 1010.92 1011.29 1011.47 1011.50 1011.21 1010.85 1010.07 1009.21 1008.74 1008.07 1007.32 1006.64 1006.00 1005.16 1004.75 1004.15 1003.75 1003.12 1002.30 1001.99 1001.76 1001.67 1001.11 1001.06 1001.11 1001.34 1001.64 1002.09
1016.45 1016.24 1016.00 1016.05 1015.99 1016.15 1016.09 1015.91 1016.20 1016.40 1016.72 1017.25 1017.46 1017.39 1016.80 1014.98 1011.88 1010.20 1010.90 1011.09 1011.15 1010.87 1010.14 1009.55 1009.14 1008.51 1007.71 1007.10 1006.53 1005.60 1004.94 1004.27 1003.71 1003.34 1002.97 1002.71 1002.29 1001.91 1001.28 1001.52 1001.21 1001.13 1001.33 1001.46 1001.79
1015.98 1015.93 1015.68 1015.52 1015.64 1015.87 1015.75 1015.71 1015.95 1016.26 1016.44 1016.91 1017.00 1017.39 1016.53 1013.68 1010.42 1009.57 1009.94 1009.95 1010.54 1010.30 1009.82 1009.27 1008.73 1008.34 1007.63 1007.25 1006.87 1006.27 1005.49 1004.64 1004.19 1003.32 1002.99 1002.83 1001.86 1001.94 1001.13 1001.44 1001.02 1001.00 1000.92 1001.12 1001.52
1015.55 1015.29 1015.24 1015.21 1015.31 1015.24 1015.44 1015.38 1015.55 1016.10 1016.52 1016.70 1016.89 1016.84 1015.25 1011.99 1010.15 1009.17 1009.00 1008.95 1009.20 1009.45 1009.14 1008.81 1008.70 1008.45 1007.98 1007.15 1006.64 1006.07 1005.28 1004.51 1003.95 1003.67 1002.79 1003.09 1000.88 1000.66 1001.05 1001.05 1000.53 1000.50 1000.56 1000.88 1001.32
1014.98 1014.77 1014.71 1014.70 1014.78 1015.01 1014.91 1014.94 1015.38 1016.03 1016.38 1016.77 1016.85 1016.69 1013.18 1010.14 1009.41 1009.42 1009.20 1008.50 1008.29 1008.74 1008.74 1008.78 1008.73 1008.33 1008.28 1007.98 1007.18 1006.80 1006.04 1004.42 1003.07 1002.90 1001.71 1002.56 998.93 1000.45 1000.01 999.77 999.73 1000.02 1000.21 1000.43 1001.14
1014.44 1014.21 1014.21 1014.19 1014.35 1014.45 1014.59 1014.74 1015.17 1016.16 1016.61 1016.76 1016.77 1015.61 1011.09 1008.97 1009.02 1008.38 1008.52 1008.32 1007.94 1008.06 1008.54 1008.93 1008.99 1008.53 1008.68 1008.23 1007.03 1006.55 1005.03 1004.51 1002.17 1002.54 1001.36 1000.77 998.83 999.25 999.61 999.16 998.89 999.30 999.88 1000.23 1001.00
1013.68 1013.84 1013.37 1013.58 1013.70 1014.09 1014.46 1015.17 1015.85 1016.49 1016.79 1016.44 1015.53 1015.03 1010.56 1008.12 1007.14 1007.62 1007.75 1008.26 1008.14 1008.03 1008.17 1008.77 1008.63 1008.02 1008.05 1008.19 1006.32 1005.86 1005.03 1003.53 1002.18 1001.99 1001.20 999.95 998.97 998.71 998.88 998.32 999.02 999.32 999.68 1000.08 1000.73
1013.11 1013.16 1012.87 1012.68 1013.37 1013.82 1014.81 1015.81 1016.43 1016.18 1015.36 1012.74 1011.09 1009.75 1007.90 1006.72 1006.94 1007.30 1007.53 1007.91 1008.23 1008.20 1007.90 1007.86 1007.92 1006.70 1006.88 1006.58 1006.30 1005.90 1005.32 1004.52 1003.31 1002.79 1002.28 1001.20 1001.41 999.23 998.78 998.73 998.64 999.52 999.59 999.92 1000.61
1012.33 1012.38 1012.38 1012.29 1012.65 1013.66 1014.04 1013.78 1012.57 1012.09 1011.58 1010.89 1009.72 1008.57 1008.02 1007.30 1006.45 1006.39 1007.13 1007.26 1007.70 1007.51 1007.68 1007.44 1005.73 1006.34 1006.31 1006.26 1006.23 1006.26 1005.90 1005.40 1005.19 1004.46 1003.95 1002.70 1002.24 1001.66 999.02 998.43 998.07 998.81 999.09 999.66 1000.53
1011.50 1011.75 1011.73 1012.10 1012.64 1013.44 1013.25 1012.85 1012.55 1012.10 1010.98 1007.72 1007.06 1006.48 1006.49 1006.92 1005.47 1005.27 1006.11 1006.34 1006.49 1006.57 1006.80 1006.20 1005.56 1005.71 1005.58 1006.09 1006.58 1006.46 1006.26 1006.82 1006.51 1006.13 1005.54 1004.57 1003.63 1001.79 999.88 998.62 998.12 997.94 998.55 999.12 1000.53
1010.80 1010.91 1011.11 1011.72 1013.27 1013.00 1013.04 1012.86 1012.73 1012.61 1011.31 1005.84 1004.43 1003.22 1003.98 1004.93 1004.40 1004.42 1004.75 1005.55 1005.75 1005.35 1006.05 1005.73 1005.48 1005.52 1005.38 1005.31 1006.61 1006.79 1007.70 1007.83 1007.91 1008.10 1007.21 1006.83 1004.05 1002.27 1000.50 998.68 997.98 997.77 998.72 999.81 1001.51
1010.04 1009.94 1010.59 1010.95 1011.49 1012.19 1012.85 1012.93 1012.38 1012.91 1010.49 1003.60 1002.55 1002.81 1003.06 1003.66 1003.22 1003.14 1004.14 1004.92 1004.86 1005.22 1006.14 1005.04 1005.92 1006.16 1005.97 1005.64 1006.29 1007.37 1009.27 1009.53 1009.70 1009.23 1008.42 1006.44 1005.84 1001.52 1000.47 998.94 998.49 998.54 999.86 1001.73 1003.18
1009.06 1009.50 1010.25 1011.07 1011.24 1011.94 1012.37 1012.70 1012.81 1012.69 1007.92 1003.84 1002.71 1002.93 1003.19 1003.40 1003.42 1003.24 1004.06 1004.67 1005.16 1005.42 1005.92 1006.22 1007.36 1007.54 1006.98 1007.06 1007.48 1008.99 1010.27 1010.25 1010.28 1009.82 1008.18 1005.58 1005.93 1002.52 1001.20 999.05 998.10 999.35 1001.28 1003.34 1004.56
1008.64 1009.24 1009.99 1010.51 1010.88 1011.65 1012.25 1012.63 1012.48 1009.64 1005.25 1003.17 1002.17 1002.32 1002.82 1002.74 1003.18 1003.54 1003.64 1004.42 1005.30 1006.08 1006.24 1006.44 1006.63 1006.86 1007.36 1007.49 1007.72 1009.22 1010.61 1010.55 1010.01 1009.03 1005.90 1005.30 1005.50 1003.94 1002.07 1001.17 998.84 1001.60 1003.58 1004.49 1005.25
1009.77 1010.06 1010.70 1010.86 1010.78 1011.29 1011.75 1011.68 1009.69 1006.20 1004.89 1002.53 1002.26 1001.61 1002.01 1002.43 1002.48 1002.79 1003.33 1003.56 1004.78 1005.75 1005.76 1005.77 1005.05 1005.42 1006.26 1006.79 1007.17 1008.24 1009.77 1009.45 1008.73 1007.85 1006.37 1005.50 1005.52 1004.40 1003.79 1002.76 1002.48 1004.22 1004.98 1005.48 1005.91
1010.73 1010.84 1011.03 1011.17 1011.04 1011.47 1011.21 1009.93 1007.57 1005.44 1003.36 1002.72 1002.59 1002.39 1001.76 1001.89 1002.18 1002.33 1002.73 1002.75 1003.24 1005.44 1006.18 1005.19 1004.54 1004.29 1005.00 1006.01 1006.86 1007.93 1008.84 1008.28 1008.95 1008.46 1007.44 1005.89 1005.14 1004.95 1004.27 1003.58 1004.84 1005.93 1006.68 1006.73 1006.79
1010.96 1011.31 1011.43 1011.36 1011.36 1011.95 1010.92 1008.15 1006.29 1004.97 1004.33 1003.85 1003.15 1003.78 1002.69 1002.36 1002.48 1003.18 1002.44 1001.95 1002.53 1004.04 1004.96 1005.97 1005.29 1004.89 1005.01 1005.69 1006.08 1006.28 1007.11 1008.44 1009.15 1008.15 1006.77 1005.01 1005.02 1005.23 1004.89 1005.09 1005.61 1006.66 1007.55 1007.94 1008.56
1011.21 1011.53 1011.63 1011.67 1011.66 1011.98 1009.67 1007.42 1006.21 1004.81 1004.50 1004.11 1003.52 1003.37 1003.59 1003.34 1003.07 1003.91 1003.83 1002.73 1002.61 1003.31 1004.60 1006.08 1005.40 1005.33 1005.57 1004.85 1004.25 1005.16 1005.73 1007.62 1008.09 1007.26 1006.87 1006.13 1006.69 1006.59 1006.41 1006.41 1006.43 1006.72 1007.38 1007.88 1008.71
1011.16 1011.32 1011.51 1011.75 1012.17 1011.14 1008.81 1006.77 1005.71 1004.75 1003.91 1003.95 1003.96 1003.56 1003.40 1003.79 1003.66 1003.40 1004.37 1004.11 1003.80 1004.24 1005.01 1005.48 1005.36 1005.27 1004.97 1004.16 1004.38 1004.43 1005.23 1006.76 1007.33 1007.13 1006.96 1007.14 1007.29 1008.00 1008.30 1007.56 1006.89 1006.96 1007.93 1008.97 1009.93
1010.84 1011.05 1011.81 1011.46 1010.62 1009.77 1008.24 1006.45 1005.74 1004.27 1003.89 1003.93 1003.92 1004.04 1004.09 1004.32 1004.64 1004.44 1004.61 1005.94 1005.53 1005.14 1005.35 1005.56 1005.72 1005.56 1005.53 1005.23 1004.47 1004.44 1004.78 1005.21 1006.19 1006.39 1006.60 1007.01 1007.38 1008.17 1007.95 1007.26 1007.67 1008.26 1008.94 1010.15 1011.40
1010.49 1010.26 1011.39 1011.11 1010.12 1008.52 1007.60 1006.28 1005.31 1004.34 1004.00 1004.08 1004.20 1004.51 1004.23 1004.46 1004.73 1004.86 1005.47 1006.15 1005.94 1005.74 1006.25 1005.93 1005.78 1005.62 1005.37 1005.45 1004.43 1004.13 1004.37 1004.80 1005.42 1006.23 1006.25 1006.62 1007.25 1008.23 1008.30 1008.28 1009.13 1009.87 1010.60 1011.77 1012.93
1009.67 1008.48 1007.81 1008.80 1008.85 1008.13 1006.80 1005.43 1004.86 1004.24 1003.96 1004.25 1004.48 1004.44 1004.46 1004.68 1004.69 1004.93 1005.56 1006.13 1006.44 1006.89 1006.61 1006.36 1006.29 1005.94 1005.72 1005.48 1005.10 1004.63 1004.60 1004.77 1005.20 1005.68 1006.18 1006.78 1007.36 1008.79 1009.57 1010.17 1011.01 1011.54 1012.16 1013.18 1014.03
1008.60 1007.33 1006.37 1005.54 1006.82 1007.57 1006.23 1004.94 1004.00 1003.78 1003.84 1003.93 1004.14 1004.23 1004.71 1004.74 1004.82 1005.01 1005.51 1005.81 1006.30 1007.01 1006.82 1007.09 1007.02 1006.79 1006.45 1005.98 1005.83 1005.64 1005.45 1005.52 1005.66 1005.98 1006.43 1007.17 1008.32 1010.29 1011.64 1012.34 1012.94 1013.28 1014.06 1015.07 1015.91
1007.79 1006.49 1006.03 1005.04 1005.74 1005.79 1004.94 1004.55 1004.04 1003.64 1003.80 1003.46 1003.88 1004.30 1004.54 1005.03 1005.63 1005.24 1005.39 1005.70 1005.97 1006.83 1007.26 1007.30 1007.41 1007.26 1006.65 1006.35 1006.57 1006.59 1006.42 1006.37 1006.58 1006.77 1007.40 1008.30 1010.21 1011.49 1013.13 1014.46 1015.47 1016.05 1016.59 1017.27 1018.05
Wind_Speed
10 11 11 12 11 11 11 10 9 9 8 8 10 14 17 18 23 17 17 8 2 4 3 11 11 11 13 16 18 17 12 15 23 22 21 19 12 3 8 8 6 5 11 12 10
9 11 12 11 11 11 11 11 10 9 8 8 9 12 15 17 19 19 4 5 6 4 6 9 9 9 10 14 11 16 14 22 22 22 21 19 19 12 10 14 12 12 12 8 8
12 12 12 12 12 13 12 12 11 10 9 7 8 10 14 17 13 5 6 6 4 5 10 14 12 14 15 15 18 18 20 21 24 26 26 22 17 19 20 18 14 11 11 9 6
12 12 13 13 12 14 12 13 12 12 8 6 7 9 13 9 9 6 7 4 4 7 11 13 11 13 16 18 17 24 24 23 24 25 25 24 21 20 21 19 16 12 10 8 8
12 13 14 15 14 13 12 12 13 12 9 5 6 8 9 9 17 18 11 8 8 10 13 13 13 14 18 15 18 23 23 24 23 23 22 22 22 25 23 20 17 16 15 11 9
13 15 14 14 14 14 11 13 13 12 11 8 5 6 7 19 15 17 13 12 12 14 15 15 14 16 21 22 22 22 26 27 26 23 22 23 25 22 20 20 20 19 17 13 10
16 15 14 13 15 13 13 11 14 13 11 9 5 6 12 24 16 18 19 15 16 16 19 16 17 19 16 21 17 22 26 22 22 25 28 24 32 27 21 21 21 18 14 13 11
17 16 15 13 13 13 14 10 14 14 12 8 4 8 12 14 14 23 21 21 18 15 18 16 17 20 20 19 24 25 27 25 20 25 24 23 36 20 21 22 23 21 13 12 12
16 16 16 14 13 12 12 11 15 14 9 6 6 9 14 3 12 13 13 17 15 16 12 11 12 18 17 18 20 17 23 27 32 26 26 25 33 24 22 24 14 16 14 11 10
16 18 16 16 11 10 7 15 16 9 3 7 10 5 11 16 10 6 2 8 11 12 13 15 10 17 15 14 19 22 23 26 27 23 26 26 28 18 20 13 10 12 12 12 11
18 18 17 14 11 17 19 10 4 3 7 14 14 11 10 4 11 9 5 6 9 13 15 17 16 18 20 21 25 27 27 30 28 27 30 24 23 20 18 20 13 16 14 11 10
19 18 17 9 13 24 13 6 12 8 12 28 29 28 24 22 21 21 13 17 12 18 18 18 24 22 22 23 23 24 27 25 25 26 25 20 20 28 19 20 18 17 17 13 11
20 18 14 9 24 14 12 10 1 5 9 15 24 21 23 21 27 24 17 20 22 21 20 22 22 22 23 21 22 26 22 22 24 23 27 19 17 24 29 21 19 18 15 16 15
20 18 11 16 14 6 6 4 2 3 6 11 14 10 20 24 19 18 22 25 25 28 21 21 23 21 26 21 15 18 20 23 21 14 12 10 9 21 27 21 24 18 11 16 15
20 12 21 24 9 8 8 6 7 4 6 6 9 6 6 19 1 9 7 13 27 25 17 23 16 13 20 22 17 17 13 13 16 18 15 22 12 16 25 26 20 12 15 16 14
11 17 28 4 5 8 12 6 5 5 12 8 10 10 11 16 17 5 6 8 9 19 18 16 12 9 14 14 19 8 6 10 13 11 11 22 15 13 13 12 16 17 20 15 13
15 24 17 7 7 15 12 5 5 9 6 13 13 11 14 16 16 16 15 12 10 6 14 16 21 20 12 15 4 11 1 4 7 8 11 8 13 17 9 20 15 23 16 14 12
16 8 4 0 13 16 7 3 8 13 25 7 7 17 18 15 17 19 19 17 17 12 11 10 9 21 15 20 11 18 11 5 5 4 6 4 5 4 5 14 24 20 7 13 14
3 2 3 1 6 4 3 10 11 15 11 16 14 13 18 17 17 16 21 20 19 19 10 6 9 3 13 18 14 6 12 20 14 12 6 7 6 4 6 20 17 13 8 11 14
2 1 1 4 4 2 4 14 14 12 11 9 12 5 14 16 13 11 20 13 20 22 20 3 7 2 15 15 19 16 7 6 6 5 5 6 11 1 12 15 15 16 11 11 11
1 2 3 3 1 2 5 7 13 12 12 11 15 14 12 16 12 5 8 7 8 19 12 7 6 3 5 13 16 16 15 5 5 8 4 5 2 13 13 15 9 11 11 13 13
2 4 7 5 3 2 7 7 4 15 11 8 5 10 13 11 12 11 9 7 6 15 17 20 4 6 12 10 4 6 8 5 4 2 2 2 2 9 6 7 5 8 11 13 14
3 3 2 4 5 6 10 16 12 12 12 11 11 11 10 10 7 9 2 6 3 4 2 9 6 7 3 8 9 10 12 11 8 7 6 3 2 10 12 8 14 16 13 14 13
3 5 3 2 3 9 13 15 17 10 12 13 8 7 11 11 12 4 6 7 5 6 5 3 8 10 6 6 6 12 12 8 6 2 6 6 7 7 2 11 14 13 12 14 12
3 5 9 8 8 13 14 11 18 13 16 11 9 13 12 10 13 14 6 8 7 3 5 3 5 9 8 2 3 4 5 6 8 8 8 8 8 13 14 13 12 11 11 12 12
3 4 7 6 20 23 15 13 16 17 11 15 14 14 13 12 10 7 11 11 7 6 5 4 2 7 10 9 6 8 7 8 9 10 11 10 4 15 13 13 12 14 13 12 11
5 6 6 5 9 18 18 13 17 13 15 12 13 8 10 8 6 4 5 6 4 11 8 7 5 3 10 7 2 7 6 8 7 6 8 6 12 9 12 11 11 9 9 9 9
Wind_Direction
276 264 254 252 245 242 243 253 250 262 278 297 314 321 321 319 312 297 279 300 124 134 307 275 260 253 254 259 254 263 255 259 260 262 272 274 298 320 301 277 275 274 240 275 323
314 307 285 267 257 245 232 233 238 244 264 285 309 319 317 321 302 281 71 100 109 102 249 255 275 255 250 262 244 240 248 244 263 285 293 304 303 299 242 258 226 231 258 234 241
306 305 304 300 286 252 232 222 216 230 249 271 303 315 313 316 288 66 162 158 140 201 251 289 279 280 270 264 257 248 246 261 275 293 306 305 292 297 287 270 257 268 261 264 245
301 298 294 290 294 286 238 217 209 213 227 256 290 311 310 292 284 94 154 149 189 237 248 277 269 270 268 261 259 262 260 264 277 285 288 291 299 272 272 278 280 274 281 275 268
293 292 290 290 290 291 280 218 207 200 199 215 286 315 310 239 246 282 157 179 213 212 238 255 260 268 268 266 272 269 276 267 268 276 273 287 268 278 267 278 272 259 256 247 235
288 289 288 288 283 277 282 233 198 188 177 187 240 299 263 261 259 253 198 209 233 225 250 252 260 268 271 274 274 282 284 284 286 290 288 280 274 268 263 268 265 263 254 241 208
283 285 282 284 284 272 269 249 186 178 177 177 214 275 256 250 279 285 284 239 248 236 260 252 267 268 283 287 277 270 265 273 265 271 269 268 272 255 267 258 259 242 237 232 215
285 284 279 277 274 269 264 226 180 166 165 169 221 268 263 268 259 244 255 262 250 252 270 276 283 284 279 280 280 275 274 276 265 269 264 242 262 257 265 243 238 246 240 214 221
283 281 273 268 261 260 247 189 154 143 153 181 245 217 270 17 220 247 252 259 251 239 233 269 277 263 267 264 269 252 264 267 279 270 269 248 255 248 250 260 241 222 231 213 194
287 281 276 264 234 244 160 120 112 119 212 224 260 273 242 243 231 196 241 225 249 247 246 228 244 242 240 243 258 271 268 271 271 272 270 260 265 261 244 238 208 247 223 202 210
291 288 283 261 223 134 114 111 116 221 216 215 199 232 155 165 148 195 243 214 234 241 243 222 233 240 251 250 260 268 270 280 282 287 298 293 312 252 230 249 208 211 228 215 193
291 291 286 224 164 149 159 204 206 353 269 223 244 253 250 276 274 264 257 247 220 243 241 246 245 250 256 267 277 278 273 274 272 286 281 315 307 295 259 263 217 222 222 205 170
291 283 264 196 154 159 188 209 57 354 275 276 226 236 239 233 251 257 243 232 238 245 253 246 265 278 247 253 265 270 267 278 280 302 303 303 279 276 280 262 258 229 229 189 135
285 278 217 146 148 159 210 133 156 13 284 270 205 242 212 220 257 256 232 241 243 250 243 263 278 271 274 237 250 273 259 270 281 285 271 323 285 271 279 268 236 222 194 116 104
279 231 149 152 135 182 165 183 109 53 268 262 187 106 134 182 283 156 187 223 239 244 226 246 266 271 266 273 277 267 344 300 277 272 285 266 262 267 251 253 252 145 120 98 85
233 160 153 114 128 139 151 151 88 141 235 256 149 180 190 209 228 219 175 229 312 241 244 271 299 262 266 279 269 146 309 302 276 260 244 252 238 278 288 251 155 137 101 109 110
166 158 159 159 152 149 150 130 143 209 205 241 223 192 215 218 216 233 243 200 204 192 235 250 235 236 246 270 191 164 148 246 222 214 249 242 236 250 319 353 146 98 133 121 96
74 88 63 94 149 155 160 129 226 231 231 159 304 224 226 217 231 213 222 235 207 219 280 275 256 223 207 225 210 200 193 223 247 250 280 173 248 224 31 86 64 83 47 92 87
68 26 68 289 145 173 169 198 203 237 262 257 233 250 245 224 233 236 233 231 212 205 206 262 250 274 189 214 195 194 215 235 277 285 278 202 209 204 177 103 107 113 113 78 75
54 49 79 137 120 118 233 217 231 231 276 203 201 244 249 249 262 266 248 226 233 194 213 258 273 244 226 198 204 208 172 205 207 262 256 235 203 69 175 141 130 125 99 72 63
205 167 148 106 22 91 224 223 227 229 212 244 219 220 235 264 253 257 272 299 284 185 212 202 238 308 143 218 230 206 221 191 274 244 267 319 80 36 46 54 78 93 68 59 47
281 227 154 161 155 228 215 206 222 231 216 237 282 262 255 251 260 242 226 322 38 169 184 213 236 239 235 233 264 244 231 184 248 313 229 355 2 113 109 166 145 98 71 66 49
214 125 163 191 202 196 244 231 252 235 215 217 230 242 242 239 252 266 229 202 275 268 169 142 235 238 262 253 222 217 224 220 210 217 269 296 299 170 228 157 56 66 61 62 42
195 151 161 232 283 229 207 237 220 229 235 228 234 237 237 230 234 245 177 191 201 236 46 177 235 224 247 308 316 215 236 235 229 219 307 298 77 143 309 33 59 57 51 55 38
218 212 180 178 216 243 219 219 224 214 214 221 225 221 221 227 232 228 180 160 191 127 184 195 246 248 250 224 313 315 282 242 254 269 260 294 319 57 37 50 51 55 50 45 33
207 242 191 223 200 208 229 222 216 215 212 211 213 209 216 226 220 229 165 185 171 173 159 171 246 245 251 245 255 275 266 270 280 285 288 284 289 72 53 52 45 36 45 39 25
230 266 287 245 201 192 221 230 230 225 210 231 219 202 220 178 259 288 234 159 171 155 194 178 211 213 242 213 273 273 282 280 302 319 324 271 55 47 64 57 41 43 45 43 36